Regional Weather Roundup
Issued by NWS Goodland, KS

Home | Current Version | Previous Version | Graphics & Text | Print | Product List | Glossary On
Versions: 1 2 3 4 5 6 7 8 9 10 11 12 13 14 15 16 17 18 19 20 21 22 23 24 25 26 27 28 29 30 31 32 33 34 35 36 37 38 39 40 41 42 43 44 45 46 47 48 49 50
000
ASUS43 KGLD 211508
RWRGLD

GOODLAND FORECAST AREA HOURLY WEATHER ROUNDUP
NATIONAL WEATHER SERVICE GOODLAND KS
800 AM MST SAT JAN 21 2017

...OFFICIAL OBSERVATIONS...

CITY           SKY/WX    TMP DP  RH WIND       PRES   REMARKS
GOODLAND KS    CLEAR     27  25  92 CALM      29.42R
HILL CITY KS   CLOUDY    31  30  96 W5        29.46S
IMPERIAL NEB   CLEAR     29  23  78 W5        29.43R
MCCOOK NEB     CLEAR     29  27  92 W8        29.45R
AKRON CO       CLEAR     30  23  75 S10       29.39R
BURLINGTON CO  CLOUDY    27  23  85 S3        29.41R
LIMON CO       FOG       21  21 100 NW3       29.38S VSB 1/4
$$

...UNOFFICIAL OBSERVATIONS...

CITY           SKY/WX    TMP DP  RH WIND       PRES   REMARKS
LENORA KS        N/A     34  32  92 CALM        N/A
NORTON KS      CLEAR     30  27  86 SW5       29.44S
SHARON SPRINGS   N/A     31  30  94 CALM        N/A
TRENTON NEB      N/A     30  32 100 CALM        N/A
KIT CARSON CO    N/A     30  27  90 CALM        N/A
YUMA CO        FAIR      19  16  86 SW7       29.41R
$$



USA.gov is the U.S. government's official web portal to all federal, state and local government web resources and services.